Waarnemingen

Advertentie
Mijn weer
Hyeres, Frankrijk (7667): temperatuur & dauwpunt: 14.02.2019 14:00:00 - 20.02.2019 14:00:00 (CET)Hyeres, Frankrijk (7667): temperatuur 5cm: 14.02.2019 14:00:00 - 20.02.2019 14:00:00 (CET)Hyeres, Frankrijk (7667): windsnelheid & windstoten: 14.02.2019 14:00:00 - 20.02.2019 14:00:00 (CET)Hyeres, Frankrijk (7667): windrichting: 14.02.2019 14:00:00 - 20.02.2019 14:00:00 (CET)Hyeres, Frankrijk (7667): luchtdruk: 14.02.2019 14:00:00 - 20.02.2019 14:00:00 (CET)Hyeres, Frankrijk (7667): zicht: 14.02.2019 14:00:00 - 20.02.2019 14:00:00 (CET)Hyeres, Frankrijk (7667): neerslag: 14.02.2019 14:00:00 - 20.02.2019 14:00:00 (CET)
Datum & Tijd tt [°C] td [°C] tt 5cm [°C] ff [km/u] ff [kn] fx [km/u] fx [kn] dd ppp [hPa] vv [km] rr [mm]
20.02.2019 14:00:00 - - - - - - - - - - -
20.02.2019 13:00:00 14,2 6,0 16,5 11 6 16 9 ZZO 1025,8 59 0,0
20.02.2019 12:00:00 13,9 4,7 20,6 8 5 16 8 ZO 1026,1 45 0,0
20.02.2019 11:00:00 14,3 5,1 17,8 4 2 10 6 NNO 1025,9 42 0,0
20.02.2019 10:00:00 11,1 5,8 12,8 6 3 10 6 NW 1025,6 18 0,0
20.02.2019 09:00:00 8,8 5,4 4,7 5 3 12 6 NNW 1025,2 18 0,0
20.02.2019 08:00:00 5,5 3,7 1,6 8 4 15 8 NNW 1024,6 18 0,0
20.02.2019 07:00:00 4,8 3,0 1,5 5 3 11 6 NNW 1024,0 17 0,0
20.02.2019 06:00:00 4,5 3,0 0,3 7 4 11 6 NNW 1024,0 17 0,0
20.02.2019 05:00:00 4,0 2,5 -0,4 7 4 9 5 N 1023,9 16 0,0
20.02.2019 04:00:00 3,7 1,7 -0,1 5 3 13 7 N 1024,0 18 0,0
20.02.2019 03:00:00 5,2 3,4 0,8 7 4 12 6 NW 1024,2 18 0,0
20.02.2019 02:00:00 5,2 3,0 1,2 11 6 14 7 NW 1024,1 18 0,0
20.02.2019 01:00:00 5,5 3,3 1,4 8 5 12 6 NW 1024,0 20 0,0
20.02.2019 00:00:00 4,8 2,7 -0,2 7 4 14 8 NW 1023,7 19 0,0
19.02.2019 23:00:00 5,0 2,9 -0,5 8 4 11 6 NW 1023,7 13 0,0
19.02.2019 22:00:00 4,3 2,5 -0,2 4 2 6 3 NNO 1023,8 5 0,0
19.02.2019 21:00:00 5,7 3,5 0,6 0 0 10 5 N 1023,3 10 0,0
19.02.2019 20:00:00 8,2 3,4 2,3 3 2 7 4 N 1023,1 27 0,0
19.02.2019 19:00:00 10,5 4,8 4,4 3 1 20 11 WZW 1022,9 45 0,0
19.02.2019 18:00:00 11,7 4,7 9,2 13 7 22 12 ZW 1022,5 54 0,0
19.02.2019 17:00:00 12,9 4,3 14,3 15 8 25 13 ZW 1022,6 55 0,0
19.02.2019 16:00:00 13,5 4,6 17,1 15 8 25 13 ZW 1022,7 60 0,0
19.02.2019 15:00:00 13,2 4,1 18,3 13 7 23 12 ZZW 1022,9 60 0,0
19.02.2019 14:00:00 13,4 4,5 18,4 13 7 22 12 Z 1023,4 60 0,0
19.02.2019 13:00:00 13,7 4,6 14,3 6 4 15 8 ZW 1024,0 20 0,0
19.02.2019 12:00:00 13,1 4,3 16,1 5 3 14 8 WNW 1024,8 51 0,0
19.02.2019 11:00:00 11,6 3,6 13,9 7 4 16 9 N 1024,8 51 0,0
19.02.2019 10:00:00 11,0 4,4 10,1 7 4 13 7 N 1024,7 48 0,0
19.02.2019 09:00:00 8,9 5,3 7,4 5 3 14 8 N 1024,4 21 0,0
19.02.2019 08:00:00 8,2 4,8 6,5 6 4 10 6 N 1023,9 26 0,0
19.02.2019 07:00:00 7,6 5,4 6,2 5 3 9 5 NNW 1023,4 23 0,0
19.02.2019 06:00:00 7,9 5,4 6,7 6 3 11 6 NNW 1023,5 23 0,0
19.02.2019 05:00:00 8,1 5,6 6,4 8 5 16 8 NW 1023,5 29 0,0
19.02.2019 04:00:00 7,7 5,3 5,4 9 5 16 8 NW 1023,3 31 0,0
19.02.2019 03:00:00 7,0 5,3 4,1 4 2 8 4 N 1023,7 28 0,0
19.02.2019 02:00:00 6,6 5,1 3,1 4 2 7 4 NNO 1024,1 24 0,2
19.02.2019 01:00:00 4,5 3,3 0,1 5 3 8 4 N 1024,5 20 0,0
19.02.2019 00:00:00 3,7 2,7 -0,4 5 3 8 4 NNW 1024,5 16 0,0
18.02.2019 23:00:00 3,0 1,7 -0,2 5 3 9 5 N 1024,6 10 0,0
18.02.2019 22:00:00 4,0 2,7 -0,4 5 3 8 4 N 1024,6 6 0,0
18.02.2019 21:00:00 5,6 3,8 0,1 5 3 7 4 N 1024,5 11 0,0
18.02.2019 20:00:00 6,9 3,9 1,4 5 3 6 3 N 1024,5 15 0,0
18.02.2019 19:00:00 9,5 4,7 2,1 3 2 8 5 Z 1024,3 23 0,0
18.02.2019 18:00:00 11,9 5,3 9,0 7 4 14 8 Z 1024,0 60 0,0
18.02.2019 17:00:00 13,1 5,5 16,1 9 5 14 8 Z 1024,0 50 0,0
18.02.2019 16:00:00 13,6 6,0 19,2 9 5 18 10 Z 1024,4 46 0,0
18.02.2019 15:00:00 13,7 5,8 19,6 10 5 17 9 ZO 1024,6 19 0,0
18.02.2019 14:00:00 14,4 6,0 19,9 6 3 16 9 ZZO 1025,3 20 0,0
18.02.2019 13:00:00 13,7 5,3 15,9 9 5 15 8 OZO 1026,0 19 0,0
18.02.2019 12:00:00 12,8 5,9 14,4 3 2 8 4 ZO 1026,8 55 0,0
18.02.2019 11:00:00 11,2 6,9 10,4 3 2 8 5 N 1026,7 18 0,0
18.02.2019 10:00:00 9,1 6,4 7,7 4 2 8 4 NNW 1026,6 14 0,0
18.02.2019 09:00:00 7,6 5,9 5,5 5 3 9 5 N 1026,6 7 0,0
18.02.2019 08:00:00 6,5 5,4 4,9 7 4 9 5 N 1026,4 27 0,0
18.02.2019 07:00:00 6,0 5,0 2,9 5 3 9 5 N 1026,3 26 0,0
18.02.2019 06:00:00 4,5 3,8 1,3 5 3 9 5 N 1026,3 24 0,0
18.02.2019 05:00:00 3,7 2,8 2,1 7 4 9 5 N 1026,3 18 0,0
18.02.2019 04:00:00 5,3 4,7 0,6 6 3 10 5 NNW 1026,5 25 0,0
18.02.2019 03:00:00 3,4 2,8 -0,1 5 3 9 5 N 1026,9 17 0,0
18.02.2019 02:00:00 3,1 2,4 -0,2 6 3 8 4 N 1027,5 14 0,0
18.02.2019 01:00:00 3,6 2,9 0,0 4 2 7 4 N 1027,7 14 0,0
18.02.2019 00:00:00 3,9 3,2 0,1 5 3 8 5 N 1027,8 10 0,0
17.02.2019 23:00:00 5,3 4,4 0,6 5 3 8 4 N 1028,1 9 0,0
17.02.2019 22:00:00 5,8 4,6 1,8 6 3 7 4 NNO 1028,1 5 0,0
17.02.2019 21:00:00 6,6 5,2 1,7 4 2 5 3 NNO 1027,9 7 0,0
17.02.2019 20:00:00 7,7 5,8 1,7 3 2 8 4 N 1027,8 8 0,0
17.02.2019 19:00:00 9,4 5,9 2,9 0 0 8 5 N 1027,5 23 0,0
17.02.2019 18:00:00 12,2 7,3 9,0 6 3 13 7 ZZW 1027,3 59 0,0
17.02.2019 17:00:00 13,4 7,8 12,8 10 5 16 9 ZZW 1027,5 59 0,0
17.02.2019 16:00:00 14,4 8,3 18,5 11 6 22 12 ZZW 1027,9 60 0,0
17.02.2019 15:00:00 14,7 8,9 19,2 10 6 18 10 Z 1028,1 60 0,0
17.02.2019 14:00:00 14,2 8,8 20,1 9 5 16 9 ZO 1028,6 59 0,0
17.02.2019 13:00:00 14,5 9,7 21,2 9 5 16 9 OZO 1029,2 31 0,0
17.02.2019 12:00:00 14,2 10,0 19,9 6 3 13 7 ZO 1029,9 19 0,0
17.02.2019 11:00:00 14,4 10,4 16,3 4 2 7 4 NNO 1030,0 19 0,0
17.02.2019 10:00:00 11,1 8,1 12,0 4 2 8 4 NNW 1030,0 12 0,0
17.02.2019 09:00:00 7,9 6,5 3,2 5 3 8 5 N 1029,9 10 0,2
17.02.2019 08:00:00 4,7 4,0 -0,5 6 3 10 5 N 1029,7 3,9 0,0
17.02.2019 07:00:00 3,8 2,5 -0,8 5 3 9 5 NNW 1029,4 14 0,0
17.02.2019 06:00:00 2,5 1,3 -0,8 4 2 8 5 NNW 1029,3 16 0,0
17.02.2019 05:00:00 4,0 2,2 -0,1 5 3 8 4 N 1029,1 21 0,0
17.02.2019 04:00:00 3,7 2,7 -0,2 6 4 10 6 N 1029,3 20 0,0
17.02.2019 03:00:00 3,6 2,9 -0,3 6 3 9 5 N 1029,7 18 0,0
17.02.2019 02:00:00 3,0 2,3 -0,3 5 3 10 5 N 1029,9 12 0,0
17.02.2019 01:00:00 2,9 2,0 -0,4 8 4 9 5 NNO 1029,9 5 0,0
17.02.2019 00:00:00 4,5 3,5 -0,1 5 3 10 5 N 1029,7 9 0,0
16.02.2019 23:00:00 3,8 2,8 -0,4 7 4 10 6 N 1029,9 6 0,0
16.02.2019 22:00:00 5,0 4,0 -0,1 5 3 6 4 N 1030,1 4,8 0,0
16.02.2019 21:00:00 6,2 4,8 0,1 4 2 6 4 N 1029,7 8 0,0
16.02.2019 20:00:00 7,2 5,2 1,0 3 2 5 3 WNW 1029,7 8 0,0
16.02.2019 19:00:00 9,4 7,0 2,1 4 2 6 3 NNO 1030,0 9 0,0
16.02.2019 18:00:00 13,6 8,2 7,0 3 1 10 5 Z 1029,6 19 0,0
16.02.2019 17:00:00 15,2 7,2 18,1 6 3 12 7 ZZO 1029,9 19 0,0
16.02.2019 16:00:00 15,6 7,4 20,7 10 5 18 10 ZO 1030,3 20 0,0
16.02.2019 15:00:00 16,0 6,7 21,1 9 5 19 10 ZO 1030,4 19 0,0
16.02.2019 14:00:00 15,9 6,9 20,6 12 6 21 11 OZO 1031,0 19 0,0
16.02.2019 13:00:00 16,2 5,8 20,5 13 7 22 12 OZO 1031,2 49 0,0
16.02.2019 12:00:00 16,1 5,4 21,3 13 7 21 11 OZO 1031,5 52 0,0
16.02.2019 11:00:00 16,0 4,4 21,6 6 4 13 7 ONO 1031,2 19 0,0
16.02.2019 10:00:00 13,8 5,9 12,1 0 0 9 5 N 1031,2 19 0,0
16.02.2019 09:00:00 7,7 5,5 1,1 6 4 11 6 N 1031,1 19 0,2
16.02.2019 08:00:00 2,6 1,4 -1,0 8 5 11 6 N 1030,8 16 0,0
16.02.2019 07:00:00 2,5 1,2 -1,0 8 4 11 6 N 1030,2 18 0,0
16.02.2019 06:00:00 3,0 1,8 -0,6 9 5 11 6 N 1030,2 19 0,0
16.02.2019 05:00:00 3,4 2,2 -0,8 9 5 11 6 N 1030,0 16 0,0
16.02.2019 04:00:00 3,9 2,4 0,4 9 5 16 9 N 1029,9 20 0,0
16.02.2019 03:00:00 4,8 3,6 -0,7 9 5 15 8 NW 1030,0 18 0,0
16.02.2019 02:00:00 3,8 2,6 0,4 8 4 15 8 NNO 1030,1 9 0,0
16.02.2019 01:00:00 3,3 1,5 -0,3 5 3 12 7 NNO 1030,1 13 0,0
16.02.2019 00:00:00 3,8 2,8 -0,4 6 3 10 6 N 1030,1 8 0,0
15.02.2019 23:00:00 3,8 2,3 -0,5 5 3 7 4 N 1029,9 5 0,0
15.02.2019 22:00:00 4,6 3,1 0,4 7 4 10 6 NNO 1029,3 7 0,0
15.02.2019 21:00:00 6,0 4,0 0,6 6 4 8 5 NNO 1028,5 9 0,0
15.02.2019 20:00:00 7,4 4,4 1,9 5 3 8 4 NO 1028,5 15 0,0
15.02.2019 19:00:00 10,9 5,0 2,6 0 0 7 4 N 1028,3 15 0,0
15.02.2019 18:00:00 13,6 5,7 9,5 3 2 17 9 ZZW 1028,2 30 0,0
15.02.2019 17:00:00 15,2 7,5 16,4 12 6 22 12 ZZW 1028,4 35 0,0
15.02.2019 16:00:00 15,8 6,5 18,7 13 7 26 14 ZZW 1028,7 19 0,0
15.02.2019 15:00:00 16,2 7,1 19,6 15 8 23 13 ZW 1029,0 16 0,0
15.02.2019 14:00:00 15,5 8,2 19,6 16 9 24 13 ZZW 1029,9 13 0,0
15.02.2019 13:00:00 15,2 7,0 20,8 12 7 18 10 ZZW 1030,3 13 0,0
15.02.2019 12:00:00 15,6 6,0 23,8 3 1 9 5 ZZW 1031,4 18 0,0
15.02.2019 11:00:00 15,2 6,2 19,6 4 2 13 7 WZW 1031,8 20 0,0
15.02.2019 10:00:00 11,7 4,2 13,1 9 5 13 7 WNW 1031,6 20 0,0
15.02.2019 09:00:00 7,6 4,5 -0,4 3 2 9 5 NNW 1031,7 20 0,0
15.02.2019 08:00:00 1,7 0,7 -1,7 7 4 10 5 N 1031,8 17 0,0
15.02.2019 07:00:00 1,1 -0,1 -1,8 8 5 10 5 N 1031,7 19 0,0
15.02.2019 06:00:00 1,5 0,0 -1,5 8 5 11 6 NNO 1031,6 17 0,2
15.02.2019 05:00:00 4,0 1,7 -1,5 5 3 12 6 NNW 1031,1 22 0,0
15.02.2019 04:00:00 3,7 1,6 -1,2 10 5 16 9 NW 1031,2 26 0,0
15.02.2019 03:00:00 3,9 2,1 -0,5 7 4 14 7 NNW 1031,7 22 0,0
15.02.2019 02:00:00 5,4 3,1 -1,2 6 4 16 9 N 1031,9 24 0,0
15.02.2019 01:00:00 5,2 4,2 -1,2 5 3 16 9 NW 1031,9 15 0,0
15.02.2019 00:00:00 4,2 3,3 -0,9 8 5 13 7 NW 1032,1 8 0,0
14.02.2019 23:00:00 6,4 5,3 0,2 6 3 10 5 NW 1032,1 8 0,0
14.02.2019 22:00:00 7,8 7,2 0,7 4 2 6 3 NNW 1032,3 6 0,0
14.02.2019 21:00:00 8,2 5,7 1,9 0 0 5 3 N 1032,2 10 0,0
14.02.2019 20:00:00 7,9 6,0 2,9 0 0 5 3 N 1032,4 9 0,0
14.02.2019 19:00:00 11,0 7,7 7,0 6 4 20 11 W 1032,4 36 0,0
14.02.2019 18:00:00 11,9 8,0 9,6 14 8 24 13 ZW 1032,3 28 0,0
14.02.2019 17:00:00 13,2 8,3 14,4 18 10 28 15 ZW 1032,6 20 0,0
14.02.2019 16:00:00 13,9 8,3 17,0 22 12 30 16 ZW 1032,9 48 0,0
14.02.2019 15:00:00 14,4 8,1 18,0 19 10 27 15 ZW 1033,3 46 0,0
14.02.2019 14:00:00 15,4 6,4 21,5 12 7 17 9 ZZW 1033,9 47 0,0

tt = temperatuur
td = dauwpunt
tt 5cm = temperatuur 5cm
ff = windsnelheid
fx = windstoten
dd = windrichting
ppp = luchtdruk
vv = zicht
rr = neerslag

Weerstations in de omgeving